BREEZE-KM R/B, 39486

Orbit data source: Space-Track

BREEZE-KM R/B, 39486 is space debris in LEO originally from a launch on Wed, 25 Dec 2013 UTC launched from the Plesetsk Missile And Space Complex (PKMTR). Debris objects in space refer to the collection of defunct objects orbiting the Earth. Examples of debris include non-operational satellites, rocket bodies, and fragments generated from explosions, collisions, or faulty payload assembly.

Loading next visibility...
Identifier
39486, 2013-076D
Orbit
LEO
Country
Flag of CISCIS
Related business
Manufacturer
Khrunichev
Mission
Spacecraft
Bus & Motor
BRIZ, S5.92
Mass
2,370 kg wet, 2,370 kg dry
Launch date (UTC)
2013-12-25 (12 years ago)
Launch vehicle
Unknown
Launch site
Plesetsk Missile And Space Complex (PKMTR)
Object type
Payload
Rocket body
Debris
Shape & HBR
Hex Cyl + 1 Rod, 2.0 m
Radar Cross Section
10.190 m², Large (>1 m²)

Expand to show TLE details & history
Last TLE update: 6 hours ago

TLE from 6 hours ago
0 BREEZE-KM R/B
1 39486U 13076D   25300.81768507  .00000033  00000-0  80134-4 0  9995
2 39486  82.4785 103.3338 0232840 187.8996 171.8415 12.82987429554456
Epoch: 2025-10-27T19:37Z
TLE epoch observation values (Epoch: 2025-10-27T19:37:27.990Z)
Latitude
-0.00007°
Longitude
132.55308°
Altitude
1,510.001 km
Speed
7.027 km/s
True Right ascension
06h 53m 20s
True Declination
0° 00' 00"
Sunlit
Object was in daylight at epoch
Visualization orbit readout
Latitude
Unknown
Longitude
Unknown
Altitude
Unknown
Speed
Unknown
Apparent Right ascension
Unknown
Apparent Declination
Unknown
Sunlit
N/A
Visualization observer readout
Local Sidereal Time
20:34:05
Azimuth
Unknown
Elevation
Unknown
Doppler factor
Unknown
Orbital elements
Apogee altitude
1,506.176 km
Perigee altitude
1,147.374 km
Semi-major axis
7,704.912 km
Eccentricity
0.02328
Inclination
82.4785°
RAAN
103.3338°
Arg. of periapsis
187.8996°
True anomaly
172.20953°
Mean anomaly
171.8415°
Eccentric anomaly
172.02656°
Mean motion
3.20916 °/min
Orbital period
112.18 mins
BSTAR
0.000080134
Loading maneuver chart data...
Computing Atmospheric mass density...
Loading historical data...
Loading historical data...
Loading historical data...
Loading historical data...
Loading historical data...
Loading historical data...
Loading historical data...

Documentation

Showing up to 5 results
|